Time,TemperatureF,DewpointF,PressureIn,WindDirection,WindDirectionDegrees,WindSpeedMPH,WindSpeedGustMPH,Humidity,HourlyPrecipIn,Conditions,Clouds,dailyrainin,SoftwareType,DateUTC
2013-04-30 00:00:00,52.3,51.0,30.05,SE,128,0.0,-999.0,96,-99.99,,,0.00,weatherlink.com 1.10,2013-04-30 04:00:00,
2013-04-30 00:15:00,52.3,51.0,30.04,SE,128,0.0,-999.0,96,-99.99,,,0.00,weatherlink.com 1.10,2013-04-30 04:15:00,
2013-04-30 00:30:00,52.3,51.0,30.05,SE,128,0.0,-999.0,96,-99.99,,,0.00,weatherlink.com 1.10,2013-04-30 04:30:00,
2013-04-30 00:45:00,52.3,51.0,30.05,SE,128,0.0,-999.0,96,-99.99,,,0.00,weatherlink.com 1.10,2013-04-30 04:45:00,
2013-04-30 01:00:00,52.5,51.0,30.04,SE,128,0.0,-999.0,96,-99.99,,,0.00,weatherlink.com 1.10,2013-04-30 05:00:00,
2013-04-30 01:15:00,52.8,52.0,30.04,SE,128,0.0,-999.0,96,-99.99,,,0.00,weatherlink.com 1.10,2013-04-30 05:15:00,
2013-04-30 01:30:00,52.8,52.0,30.05,SE,128,0.0,-999.0,96,-99.99,,,0.00,weatherlink.com 1.10,2013-04-30 05:30:00,
2013-04-30 01:45:00,52.8,52.0,30.04,SE,128,0.0,-999.0,97,-99.99,,,0.00,weatherlink.com 1.10,2013-04-30 05:45:00,
2013-04-30 02:00:00,52.6,52.0,30.04,SE,128,0.0,-999.0,97,-99.99,,,0.00,weatherlink.com 1.10,2013-04-30 06:00:00,
2013-04-30 02:15:00,52.6,52.0,30.04,SE,128,0.0,-999.0,97,-99.99,,,0.00,weatherlink.com 1.10,2013-04-30 06:15:00,
2013-04-30 02:30:00,52.6,52.0,30.03,SE,128,0.0,-999.0,97,-99.99,,,0.00,weatherlink.com 1.10,2013-04-30 06:30:00,
2013-04-30 02:45:00,52.6,52.0,30.03,SE,128,0.0,-999.0,97,-99.99,,,0.00,weatherlink.com 1.10,2013-04-30 06:45:00,
2013-04-30 03:00:00,52.6,52.0,30.03,SE,128,0.0,-999.0,97,-99.99,,,0.00,weatherlink.com 1.10,2013-04-30 07:00:00,
2013-04-30 03:15:00,52.5,52.0,30.03,SE,128,0.0,-999.0,97,-99.99,,,0.00,weatherlink.com 1.10,2013-04-30 07:15:00,
2013-04-30 03:30:00,52.5,52.0,30.03,SE,128,0.0,-999.0,97,-99.99,,,0.00,weatherlink.com 1.10,2013-04-30 07:30:00,
2013-04-30 03:45:00,52.5,52.0,30.04,SE,128,0.0,-999.0,97,-99.99,,,0.00,weatherlink.com 1.10,2013-04-30 07:45:00,
2013-04-30 04:00:00,52.5,52.0,30.04,SE,128,0.0,-999.0,97,-99.99,,,0.00,weatherlink.com 1.10,2013-04-30 08:00:00,
2013-04-30 04:15:00,52.6,52.0,30.04,SE,128,0.0,-999.0,97,-99.99,,,0.00,weatherlink.com 1.10,2013-04-30 08:15:00,
2013-04-30 04:30:00,52.3,52.0,30.05,SE,128,0.0,-999.0,97,-99.99,,,0.00,weatherlink.com 1.10,2013-04-30 08:30:00,
2013-04-30 04:45:00,51.6,51.0,30.06,SE,128,0.0,-999.0,97,-99.99,,,0.00,weatherlink.com 1.10,2013-04-30 08:45:00,
2013-04-30 05:00:00,51.6,51.0,30.06,SE,128,0.0,-999.0,98,-99.99,,,0.00,weatherlink.com 1.10,2013-04-30 09:00:00,
2013-04-30 05:15:00,51.6,51.0,30.06,SE,128,0.0,-999.0,98,-99.99,,,0.00,weatherlink.com 1.10,2013-04-30 09:15:00,
2013-04-30 05:30:00,51.6,51.0,30.07,SE,128,0.0,-999.0,98,-99.99,,,0.00,weatherlink.com 1.10,2013-04-30 09:30:00,
2013-04-30 05:45:00,51.6,51.0,30.08,SE,128,0.0,-999.0,98,-99.99,,,0.00,weatherlink.com 1.10,2013-04-30 09:45:00,
2013-04-30 06:00:00,51.4,51.0,30.09,SE,128,0.0,-999.0,98,-99.99,,,0.00,weatherlink.com 1.10,2013-04-30 10:00:00,
2013-04-30 06:15:00,51.6,51.0,30.09,SE,128,0.0,-999.0,98,-99.99,,,0.00,weatherlink.com 1.10,2013-04-30 10:15:00,
2013-04-30 06:30:00,51.7,51.0,30.10,SE,128,0.0,-999.0,98,-99.99,,,0.00,weatherlink.com 1.10,2013-04-30 10:30:00,
2013-04-30 06:45:00,51.7,51.0,30.10,SE,128,0.0,-999.0,98,-99.99,,,0.00,weatherlink.com 1.10,2013-04-30 10:45:00,
2013-04-30 07:00:00,51.9,51.0,30.11,SE,128,0.0,-999.0,98,-99.99,,,0.00,weatherlink.com 1.10,2013-04-30 11:00:00,
2013-04-30 07:15:00,52.0,52.0,30.11,SE,128,0.0,-999.0,98,-99.99,,,0.00,weatherlink.com 1.10,2013-04-30 11:15:00,
2013-04-30 07:30:00,52.0,52.0,30.12,SE,128,0.0,-999.0,98,-99.99,,,0.00,weatherlink.com 1.10,2013-04-30 11:30:00,
2013-04-30 07:45:00,52.2,52.0,30.13,SE,128,0.0,-999.0,98,-99.99,,,0.00,weatherlink.com 1.10,2013-04-30 11:45:00,
2013-04-30 08:00:00,52.2,52.0,30.13,SE,128,0.0,-999.0,98,-99.99,,,0.00,weatherlink.com 1.10,2013-04-30 12:00:00,
2013-04-30 08:15:00,52.2,52.0,30.13,SE,128,0.0,-999.0,98,-99.99,,,0.00,weatherlink.com 1.10,2013-04-30 12:15:00,
2013-04-30 08:30:00,52.2,52.0,30.15,SE,128,0.0,-999.0,98,-99.99,,,0.00,weatherlink.com 1.10,2013-04-30 12:30:00,
2013-04-30 08:45:00,52.2,52.0,30.15,SE,128,0.0,-999.0,98,-99.99,,,0.00,weatherlink.com 1.10,2013-04-30 12:45:00,
2013-04-30 09:00:00,52.3,52.0,30.16,SE,128,0.0,-999.0,98,-99.99,,,0.00,weatherlink.com 1.10,2013-04-30 13:00:00,
2013-04-30 09:15:00,52.3,52.0,30.16,SE,128,0.0,-999.0,98,-99.99,,,0.00,weatherlink.com 1.10,2013-04-30 13:15:00,
2013-04-30 09:31:00,52.5,52.0,30.16,SE,128,1.0,-999.0,99,-99.99,,,0.00,weatherlink.com 1.10,2013-04-30 13:31:00,
2013-04-30 09:46:00,52.8,53.0,30.16,SE,128,0.0,-999.0,99,-99.99,,,0.00,weatherlink.com 1.10,2013-04-30 13:46:00,
2013-04-30 10:01:00,53.2,53.0,30.16,SE,128,0.0,-999.0,99,-99.99,,,0.00,weatherlink.com 1.10,2013-04-30 14:01:00,
2013-04-30 10:16:00,53.6,53.0,30.16,SE,128,0.0,-999.0,98,-99.99,,,0.00,weatherlink.com 1.10,2013-04-30 14:16:00,
2013-04-30 10:31:00,54.4,54.0,30.16,NW,326,0.0,-999.0,99,-99.99,,,0.00,weatherlink.com 1.10,2013-04-30 14:31:00,
2013-04-30 10:46:00,54.8,54.0,30.16,NNW,327,0.0,-999.0,98,-99.99,,,0.00,weatherlink.com 1.10,2013-04-30 14:46:00,
2013-04-30 11:01:00,56.5,55.0,30.15,NNW,327,0.0,-999.0,95,-99.99,,,0.00,weatherlink.com 1.10,2013-04-30 15:01:00,
2013-04-30 11:16:00,57.5,54.0,30.15,NNW,327,0.0,-999.0,87,-99.99,,,0.00,weatherlink.com 1.10,2013-04-30 15:16:00,
2013-04-30 11:31:00,58.1,53.0,30.14,NNW,327,0.0,-999.0,83,-99.99,,,0.00,weatherlink.com 1.10,2013-04-30 15:31:00,
2013-04-30 11:46:00,58.6,52.0,30.14,NNW,327,0.0,-999.0,80,-99.99,,,0.00,weatherlink.com 1.10,2013-04-30 15:46:00,
2013-04-30 12:01:00,59.2,53.0,30.15,SE,146,0.0,-999.0,81,-99.99,,,0.00,weatherlink.com 1.10,2013-04-30 16:01:00,
2013-04-30 12:16:00,59.2,54.0,30.15,ESE,123,2.0,-999.0,83,-99.99,,,0.00,weatherlink.com 1.10,2013-04-30 16:16:00,
2013-04-30 12:31:00,61.5,55.0,30.13,ESE,121,0.0,-999.0,78,-99.99,,,0.00,weatherlink.com 1.10,2013-04-30 16:31:00,
2013-04-30 12:46:00,64.2,57.0,30.12,ESE,117,2.0,-999.0,76,-99.99,,,0.00,weatherlink.com 1.10,2013-04-30 16:46:00,
2013-04-30 13:01:00,63.7,55.0,30.11,ESE,119,1.0,-999.0,72,-99.99,,,0.00,weatherlink.com 1.10,2013-04-30 17:01:00,
2013-04-30 13:16:00,63.1,55.0,30.11,ESE,115,0.0,-999.0,75,-99.99,,,0.00,weatherlink.com 1.10,2013-04-30 17:16:00,
2013-04-30 13:31:00,63.2,54.0,30.11,ESE,105,1.0,-999.0,72,-99.99,,,0.00,weatherlink.com 1.10,2013-04-30 17:31:00,
2013-04-30 13:46:00,62.3,54.0,30.11,ESE,107,0.0,-999.0,74,-99.99,,,0.00,weatherlink.com 1.10,2013-04-30 17:46:00,
2013-04-30 14:01:00,62.4,55.0,30.11,SE,140,0.0,-999.0,76,-99.99,,,0.00,weatherlink.com 1.10,2013-04-30 18:01:00,
2013-04-30 14:16:00,64.0,55.0,30.11,SE,142,0.0,-999.0,72,-99.99,,,0.00,weatherlink.com 1.10,2013-04-30 18:16:00,
2013-04-30 14:31:00,64.5,55.0,30.11,SE,130,0.0,-999.0,70,-99.99,,,0.00,weatherlink.com 1.10,2013-04-30 18:31:00,
2013-04-30 14:46:00,66.1,54.0,30.10,NE,51,0.0,-999.0,66,-99.99,,,0.00,weatherlink.com 1.10,2013-04-30 18:46:00,
2013-04-30 15:01:00,66.0,54.0,30.10,ESE,110,2.0,-999.0,66,-99.99,,,0.00,weatherlink.com 1.10,2013-04-30 19:01:00,
2013-04-30 15:16:00,65.8,54.0,30.10,East,98,1.0,-999.0,66,-99.99,,,0.00,weatherlink.com 1.10,2013-04-30 19:16:00,
2013-04-30 15:31:00,63.7,54.0,30.10,ESE,123,0.0,-999.0,70,-99.99,,,0.00,weatherlink.com 1.10,2013-04-30 19:31:00,
2013-04-30 15:46:00,63.1,53.0,30.09,ESE,109,1.0,-999.0,70,-99.99,,,0.00,weatherlink.com 1.10,2013-04-30 19:46:00,
2013-04-30 16:01:00,63.4,54.0,30.09,SE,143,1.0,-999.0,71,-99.99,,,0.00,weatherlink.com 1.10,2013-04-30 20:01:00,
2013-04-30 16:16:00,65.0,53.0,30.08,SE,138,0.0,-999.0,66,-99.99,,,0.00,weatherlink.com 1.10,2013-04-30 20:16:00,
2013-04-30 16:31:00,63.7,53.0,30.09,ESE,105,1.0,-999.0,68,-99.99,,,0.00,weatherlink.com 1.10,2013-04-30 20:31:00,
2013-04-30 16:46:00,62.7,52.0,30.11,SW,234,0.0,-999.0,69,-99.99,,,0.00,weatherlink.com 1.10,2013-04-30 20:46:00,
2013-04-30 17:01:00,62.1,53.0,30.11,ESE,122,1.0,-999.0,71,-99.99,,,0.00,weatherlink.com 1.10,2013-04-30 21:01:00,
2013-04-30 17:16:00,63.2,53.0,30.11,ESE,117,0.0,-999.0,70,-99.99,,,0.00,weatherlink.com 1.10,2013-04-30 21:16:00,
2013-04-30 17:31:00,64.3,53.0,30.11,ESE,108,1.0,-999.0,68,-99.99,,,0.00,weatherlink.com 1.10,2013-04-30 21:31:00,
2013-04-30 17:46:00,62.4,53.0,30.13,SSW,211,0.0,-999.0,72,-99.99,,,0.00,weatherlink.com 1.10,2013-04-30 21:46:00,
2013-04-30 18:01:00,61.0,53.0,30.14,SE,132,1.0,-999.0,76,-99.99,,,0.00,weatherlink.com 1.10,2013-04-30 22:01:00,
2013-04-30 18:16:00,60.4,54.0,30.15,SE,132,0.0,-999.0,79,-99.99,,,0.00,weatherlink.com 1.10,2013-04-30 22:16:00,
2013-04-30 18:31:00,60.1,53.0,30.16,ESE,118,0.0,-999.0,78,-99.99,,,0.00,weatherlink.com 1.10,2013-04-30 22:31:00,
2013-04-30 18:46:00,59.3,54.0,30.16,ESE,109,1.0,-999.0,81,-99.99,,,0.00,weatherlink.com 1.10,2013-04-30 22:46:00,
2013-04-30 19:01:00,58.7,53.0,30.17,ESE,109,3.0,-999.0,82,-99.99,,,0.00,weatherlink.com 1.10,2013-04-30 23:01:00,
2013-04-30 19:17:00,58.0,53.0,30.18,South,188,0.0,-999.0,83,-99.99,,,0.00,weatherlink.com 1.10,2013-04-30 23:17:00,
2013-04-30 19:31:00,57.3,53.0,30.18,SE,140,1.0,-999.0,85,-99.99,,,0.00,weatherlink.com 1.10,2013-04-30 23:31:00,
2013-04-30 19:46:00,56.6,53.0,30.20,ESE,117,0.0,-999.0,86,-99.99,,,0.00,weatherlink.com 1.10,2013-04-30 23:46:00,
2013-04-30 20:01:00,56.2,52.0,30.19,ESE,117,0.0,-999.0,87,-99.99,,,0.00,weatherlink.com 1.10,2013-05-01 00:01:00,
2013-04-30 20:16:00,55.6,52.0,30.20,ESE,117,0.0,-999.0,88,-99.99,,,0.00,weatherlink.com 1.10,2013-05-01 00:16:00,
2013-04-30 20:31:00,55.1,52.0,30.21,ESE,117,0.0,-999.0,90,-99.99,,,0.00,weatherlink.com 1.10,2013-05-01 00:31:00,
2013-04-30 20:46:00,55.0,53.0,30.21,ESE,117,0.0,-999.0,91,-99.99,,,0.00,weatherlink.com 1.10,2013-05-01 00:46:00,
2013-04-30 21:01:00,54.7,52.0,30.22,SE,125,0.0,-999.0,91,-99.99,,,0.00,weatherlink.com 1.10,2013-05-01 01:01:00,
2013-04-30 21:16:00,54.4,52.0,30.22,SE,125,0.0,-999.0,91,-99.99,,,0.00,weatherlink.com 1.10,2013-05-01 01:16:00,
2013-04-30 21:31:00,54.1,52.0,30.22,SE,125,0.0,-999.0,92,-99.99,,,0.00,weatherlink.com 1.10,2013-05-01 01:31:00,
2013-04-30 21:46:00,53.9,52.0,30.23,SE,125,0.0,-999.0,92,-99.99,,,0.00,weatherlink.com 1.10,2013-05-01 01:46:00,
2013-04-30 22:01:00,53.6,51.0,30.23,SE,125,0.0,-999.0,92,-99.99,,,0.00,weatherlink.com 1.10,2013-05-01 02:01:00,
2013-04-30 22:16:00,53.5,51.0,30.24,SE,125,1.0,-999.0,91,-99.99,,,0.00,weatherlink.com 1.10,2013-05-01 02:16:00,
2013-04-30 22:32:00,53.3,51.0,30.24,SE,125,0.0,-999.0,92,-99.99,,,0.00,weatherlink.com 1.10,2013-05-01 02:32:00,
2013-04-30 22:47:00,53.2,51.0,30.24,SE,125,0.0,-999.0,92,-99.99,,,0.00,weatherlink.com 1.10,2013-05-01 02:47:00,
2013-04-30 23:02:00,52.9,51.0,30.24,SE,125,0.0,-999.0,92,-99.99,,,0.00,weatherlink.com 1.10,2013-05-01 03:02:00,
2013-04-30 23:17:00,52.8,51.0,30.24,SE,125,0.0,-999.0,92,-99.99,,,0.00,weatherlink.com 1.10,2013-05-01 03:17:00,
2013-04-30 23:32:00,52.6,50.0,30.23,SE,125,0.0,-999.0,92,-99.99,,,0.00,weatherlink.com 1.10,2013-05-01 03:32:00,
2013-04-30 23:47:00,52.5,50.0,30.23,SE,127,0.0,-999.0,92,-99.99,,,0.00,weatherlink.com 1.10,2013-05-01 03:47:00,